Location: Betzi
(47.2343°N, 9.5260°E)
Time: 22:29:13
(UTC+00:00)

Cosmos 2333 Rocket - Pass Details

Date: 27 May 2022
Orbit: 839 x 863 km, 70.8° (Epoch: 29 June)

Event Time Altitude Azimuth Distance (km) Brightness Sun altitude
Exits shadow 00:07:17 13° 255° (WSW) 2,272 4.2 -20.6°
Maximum altitude 00:11:34 29° 312° (NW) 1,496 3.7 -20.5°
Drops below altitude 10° 00:16:29 10° 12° (NNE) 2,480 5.8 -20.3°
Sets 00:19:17 0° 23° (NNE) 3,423 6.9 -20.2°
